Location: Unspecified
(35.2439°N, 0.0000°E)
Time: 06:01:19
(UTC+00:00)

NRL PL153 - Visible Passes

Search period start: 05 April 2026 00:00
Search period end: 15 April 2026 00:00
Orbit: 898 x 912 km, 70.0° (Epoch: 28 March)

Date Brightness Start Highest point End Pass type
(mag) Time Alt. Az. Time Alt. Az. Time Alt. Az.
8 Apr 11.6 03:58:15 10° SE 04:00:59 13° E 04:03:42 10° ENE visible
9 Apr 11.3 04:00:42 10° SE 04:04:48 19° E 04:08:54 10° ENE visible
10 Apr 10.8 04:03:44 10° SSE 04:08:38 27° ESE 04:13:34 10° NE visible
11 Apr 10.2 04:07:06 10° S 04:12:32 37° ESE 04:18:00 10° NE visible
12 Apr 9.6 04:10:41 10° S 04:16:27 52° ESE 04:22:15 10° NNE visible
13 Apr 9.1 04:14:27 10° SSW 04:20:24 72° ESE 04:26:25 10° NNE visible
14 Apr 11.4 02:38:01 10° ESE 02:39:43 11° E 02:41:26 10° E visible
14 Apr 8.8 04:18:26 10° SSW 04:24:25 83° WNW 04:30:27 10° NNE visible
